Theta_e
313 314 315 315 315 315 316 315 316 316 316 316 316 315 314 313 315 315 316 313 313 313
311 312 313 313 314 315 315 315 315 315 315 315 315 315 314 312 312 312 313 313 313 313
310 311 312 312 312 313 314 314 314 314 314 315 315 314 314 313 311 310 311 311 311 313
309 310 311 311 311 312 313 313 313 313 313 314 314 314 313 312 311 308 308 309 310 312
309 310 309 310 310 312 311 312 312 312 312 313 313 313 312 311 310 308 307 309 310 311
309 309 309 310 310 310 311 311 311 311 311 311 312 312 312 312 310 309 308 308 309 310
308 309 309 310 310 310 310 310 310 310 311 311 311 311 311 311 311 310 309 308 308 308
308 307 307 307 307 308 309 309 309 308 309 310 309 309 309 309 309 309 309 307 306 307
305 305 306 306 306 306 306 307 307 306 307 307 307 297 300 306 309 308 307 306 305 306
303 303 304 305 305 304 304 306 306 306 306 306 307 298 298 297 309 307 307 307 305 303
293 296 304 304 304 304 304 304 304 305 305 305 306 298 297 296 307 307 306 306 307 305
288 290 294 302 303 304 304 304 304 304 305 304 305 297 296 298 304 305 305 306 307 307
287 288 290 297 303 303 304 303 303 302 304 299 304 297 296 298 303 302 303 304 305 291
285 286 288 290 298 300 302 300 300 299 301 303 301 302 296 296 302 301 301 300 300 302
Wind_Speed
15 10 11 13 11 10 11 12 15 15 15 16 15 14 13 8 10 10 9 8 7 4
12 15 13 15 13 10 12 10 16 17 16 17 16 16 15 9 10 10 9 9 7 6
11 13 14 12 14 15 13 13 14 17 17 17 16 16 16 13 10 10 8 6 9 9
9 11 12 12 13 14 14 15 15 16 16 16 16 16 15 14 13 12 10 8 9 12
9 9 11 13 13 13 14 14 15 15 17 17 17 17 16 15 13 13 13 12 13 14
9 9 11 12 12 13 14 14 14 15 16 17 17 17 18 16 16 15 13 14 14 14
9 10 10 10 11 13 14 14 15 15 15 14 15 16 16 16 16 16 14 14 13 12
9 10 10 10 10 12 13 13 14 14 14 15 14 12 15 15 16 15 15 13 13 13
10 8 7 8 8 8 9 10 11 12 15 15 10 13 15 14 14 14 14 13 12 12
10 7 7 7 7 8 9 9 10 11 12 12 13 14 17 16 13 14 14 13 11 10
13 12 8 7 8 8 8 9 9 10 11 11 10 15 17 18 16 14 15 15 14 13
13 13 13 9 10 10 8 9 9 9 11 11 10 16 17 16 13 11 12 12 14 14
12 12 12 13 8 8 7 8 7 8 9 10 11 13 16 15 8 10 7 9 11 14
11 11 11 12 8 4 7 6 7 7 6 8 6 8 14 15 8 7 7 7 7 7
Wind_Direction
236 233 227 222 212 205 199 199 197 198 200 201 201 198 188 193 211 219 212 206 211 206
234 232 230 227 222 215 209 199 197 199 201 201 201 201 195 188 202 206 211 212 216 212
236 230 233 228 222 220 214 201 195 196 200 200 203 203 200 194 193 197 198 205 217 221
242 236 230 228 224 223 219 207 201 199 197 196 197 200 203 202 193 199 202 199 209 223
250 232 231 228 227 222 219 214 208 202 201 199 197 195 198 201 198 200 204 207 214 219
263 241 232 233 226 218 216 212 209 206 205 203 201 199 200 200 199 199 201 206 213 212
275 259 244 236 230 222 217 213 209 208 206 205 202 202 200 201 203 203 199 197 204 205
285 272 257 243 235 230 223 219 213 206 207 208 208 206 203 202 203 204 206 200 200 202
291 271 258 244 227 224 219 215 214 214 212 208 203 192 196 201 204 206 207 207 207 209
309 274 258 244 227 221 222 218 215 210 208 211 212 188 192 195 202 208 213 213 207 207
336 325 270 245 235 230 223 219 216 214 211 212 209 187 192 192 211 212 214 217 213 209
328 321 314 257 236 231 224 219 215 213 212 211 210 193 195 193 206 210 211 216 217 214
319 320 313 304 243 229 222 221 213 210 212 208 214 194 198 195 203 212 210 210 214 207
324 329 326 314 289 235 222 207 203 201 210 203 214 200 195 192 204 205 208 211 212 213